Regional Weather Roundup
Issued by NWS

Home | Current Version | Previous Version | Text Only | Print | Product List | Glossary On
Versions: 1 2 3 4 5 6 7 8 9 10 11 12 13 14 15 16 17 18 19 20 21 22 23 24 25 26 27 28 29 30 31 32 33 34 35 36 37 38 39 40 41 42 43 44 45 46 47 48 49 50
739
ASUS44 KLIX 180805
RWRLA
LOUISIANA WEATHER ROUNDUP
NATIONAL WEATHER SERVICE NEW ORLEANS LA
300 AM CDT FRI APR 18 2014

NOTE: "FAIR" INDICATES FEW OR NO CLOUDS BELOW 12,000 FEET WITH NO
      SIGNIFICANT WEATHER AND/OR OBSTRUCTIONS TO VISIBILITY.
      SKY/WX - SKY CONDITION AND SIGNIFICANT WEATHER.
      TMP - AIR TEMPERATURE.    DP   - DEWPOINT TEMPERATURE.
      RH  - RELATIVE HUMIDITY.  PRES - PRESSURE.
      HX  - HEAT INDEX.         WCI  - WIND CHILL INDEX.

*  THESE STATIONS ARE NOT NWS OR FAA STATIONS AND ARE NOT UNDER
   NWS QUALITY CONTROL.

LAZ040-048-061>063-065-066-069-180900-
SOUTHEAST LOUISIANA

CITY           SKY/WX    TMP DP  RH WIND       PRES   REMARKS
N.O. AUDUBON     N/A     66 N/A N/A MISG        N/A
N.O. INTL ARPT CLOUDY    63  59  87 E10       30.05F
N.O. LAKEFRONT CLOUDY    62  60  93 E16       30.06F
N.O. DOWNTOWN* CLOUDY    63  55  77 NE7       30.05F
SLIDELL        CLOUDY    62  58  86 VRB6      30.06F
BATON ROUGE    CLOUDY    62  55  77 N5        30.11F
BOOTHVILLE     CLOUDY    63  60  90 NE10      30.02F
BELLE CHASSE   CLOUDY    63  59  87 E13       30.04F
BOGALUSA*        N/A     63  57  82 N3        30.11R
GALLIANO*      CLOUDY    64  61  90 N8        30.04F
NEW ROADS*     CLOUDY    60  56  88 N6        30.12F
GONZALES*      CLOUDY    62  60  93 N5        30.08F
HAMMOND*       CLOUDY    61  57  88 NW5       30.10S
HOUMA*           N/A     63  58  85 NE6       30.06F
PORT FOURCHON* PTSUNNY   64  61  88 NE12G18   30.04F FOG

$$

LAZ041-044-053-054-180900-
SOUTHWEST LOUISIANA

CITY           SKY/WX    TMP DP  RH WIND       PRES   REMARKS
LAKE CHARLES   MOCLDY    56  54  93 N3        30.11F
LAFAYETTE      CLOUDY    61  59  93 N6        30.11F FOG
PATTERSON      CLOUDY    63  59  88 NE6         N/A
SALT POINT       N/A     65  61  87 CALM      30.07F
NEW IBERIA     CLOUDY    61  59  93 N5        30.11F FOG
CHENAULT AIRPK PTCLDY    56  53  91 N5        30.12F

$$

LAZ027-028-180900-
CENTRAL LOUISIANA

CITY           SKY/WX    TMP DP  RH WIND       PRES   REMARKS
FORT POLK      CLEAR     54  51  90 NE7       30.12F
ALEXANDRIA INT CLOUDY    56  54  93 CALM      30.12F
ALEXANDRIA     MOCLDY    56  54  93 CALM      30.13F

$$

LAZ001-002-180900-
NORTHWEST LOUISIANA

CITY           SKY/WX    TMP DP  RH WIND       PRES   REMARKS
SHREVEPORT     CLOUDY    56  51  84 CALM      30.15F
BARKSDALE AFB  MOCLDY    53  51  94 N2        30.16F
DTN SHREVEPORT PTCLDY    53  51  93 CALM      30.16F

$$

LAZ014-016-180900-
NORTHEAST LOUISIANA

CITY           SKY/WX    TMP DP  RH WIND       PRES   REMARKS
MONROE         MOCLDY    54  52  93 CALM      30.16F
TALLULAH       MOCLDY    60  54  80 N5        30.16F

$$




USA.gov is the U.S. government's official web portal to all federal, state and local government web resources and services.